Regional Weather Roundup
Issued by NWS Midland/Odessa, TX

Skip options and go directly to product.
Home | Oldest Version | Previous Version | Current Version | All | Text Only | Save Text | Print | Product List | Glossary Off

Skip product version selection by date and time.   

811
ASUS44 KMAF 280710
RWRMAF
MIDLAND AREA WEATHER ROUNDUP
NATIONAL WEATHER SERVICE MIDLAND TX
100 AM CST FRI NOV 28 2014

...IN SOUTHWEST TEXAS AND SOUTHEAST NEW MEXICO...

CITY           SKY/WX    TMP DP  RH WIND       PRES   REMARKS
ALPINE         CLEAR     45  21  38 SW3       30.38S
ANDREWS        FAIR      46  32  57 SW10      30.25F
ARTESIA        NOT AVBL
BIG SPRING     CLEAR     47  31  54 S12       30.28F
CARLSBAD       CLEAR     38  29  70 E3        30.23F
DRYDEN           N/A     45  36  70 NE7       30.31F
FORT STOCKTON  CLEAR     46  33  60 S7        30.28F
GUAD PASS      NOT AVBL
HOBBS          CLEAR     39  28  65 S8        30.26F WCI  34
MARFA          CLEAR     27  19  74 N6        30.36S WCI  20
MIDLAND AIRPK  CLEAR     49  34  55 S12       30.26F
MIDLAND INTL   CLEAR     47  32  56 S8        30.26F
ODESSA         CLEAR     50  33  52 S20G26    30.26F
PECOS          CLEAR     35  28  75 W5        30.26F WCI  31
PRESIDIO       FAIR      52  27  38 N12       30.29F
SEMINOLE       CLEAR     40  30  66 SW9       30.26F WCI  34
SNYDER         CLEAR     40  32  75 S8        30.26F WCI  34
WINK           PTCLDY    43  29  57 SE7       30.25F WCI  39
$$
...OTHER STATIONS IN TEXAS...

CITY           SKY/WX    TMP DP  RH WIND       PRES   REMARKS
ABILENE        CLEAR     51  32  48 S16G24    30.26F
AMARILLO       MOCLDY    45  29  53 SW15      30.14F WCI  38
AUSTIN         CLEAR     35  33  92 CALM      30.37F
BROWNSVILLE    FOG       53  52  96 CALM      30.35F VSB 3/4
CORPUS CHRISTI PTCLDY    58  55  90 E7        30.35F
DALLAS FTW     CLEAR     42  29  59 S8        30.32F WCI  37
DEL RIO        CLEAR     47  38  71 SE5       30.34F
EL PASO        CLEAR     45  21  38 CALM      30.28F
HOUSTON INT    CLEAR     43  40  89 CALM      30.39F
LUBBOCK        CLEAR     47  28  47 SW13      30.21F
SAN ANGELO     CLEAR     47  33  58 S6        30.29F
SAN ANTONIO    CLEAR     43  37  79 NW5       30.37F
WACO           CLEAR     37  33  85 CALM      30.36F
WICHITA FALLS  NOT AVBL
$$
...OTHER LOCATIONS IN NEW MEXICO...

CITY           SKY/WX    TMP DP  RH WIND       PRES   REMARKS
ALAMAGORDO     CLEAR     39  19  45 NE6       30.30S WCI  35
ALBUQUERQUE    MOCLDY    41  21  44 CALM      30.32F
CANNON AFB     PTCLDY    41  28  59 W9        30.22F WCI  35
CLOVIS         PTCLDY    37  27  65 W10       30.21F WCI  30
HOLLOMAN AFB   CLEAR     35  20  53 CALM      30.29F
ROSWELL        PTCLDY    31  25  78 W5        30.23F WCI  26
RUIDOSO        CLEAR     45   7  21 W10       30.36F WCI  39
SANTA FE       MOCLDY    39  19  44 E3        30.33F
TRUTH OR CONSE CLEAR     42  19  39 W10       30.31F WCI  36
TUCUMCARI      MOCLDY    45  29  53 SW14      30.16F WCI  38
$$

USA.gov is the U.S. government's official web portal to all federal, state and local government web resources and services.